CW6575 Weather Reports


Display with metric or nautical units.
time (UTC)temp
F
wind
direction
speed
MPH
gust
MPH
rain 1hr
in
rain 24hr
in
rain mn
in
humidity
%
barometer
mb
20260506001522 63 160 1.0 4.0 0.00 0.00 0.00 57 1008.1
20260506000023 67 119 0.0 1.0 0.00 0.00 0.00 48 1008.3
20260505234520 67 315 0.0 0.0 0.00 0.00 0.00 46 1008.0
20260505233020 69 315 0.0 0.0 0.00 0.00 0.00 42 1007.8
20260505231528 71 323 0.0 2.0 0.00 0.00 0.00 38 1007.7
20260505230026 72 307 1.0 3.0 0.00 0.00 0.00 37 1007.6
20260505224518 73 300 1.0 4.0 0.00 0.00 0.00 35 1007.7
20260505223016 73 322 2.0 7.0 0.00 0.00 0.00 35 1008.0
20260505221514 74 276 1.0 5.0 0.00 0.00 0.00 34 1008.1
20260505220014 74 355 2.0 5.0 0.00 0.00 0.00 33 1008.1
20260505214513 74 236 2.0 9.0 0.00 0.00 0.00 30 1008.3
20260505213011 76 321 3.0 8.0 0.00 0.00 0.00 30 1008.3
20260505211507 75 333 3.0 8.0 0.00 0.00 0.00 31 1008.1
20260505210007 74 188 4.0 9.0 0.00 0.00 0.00 33 1008.0
20260505204605 74 314 1.0 5.0 0.00 0.00 0.00 41 1008.0
20260505203004 74 324 1.0 4.0 0.00 0.00 0.00 39 1008.2
20260505201505 74 309 1.0 6.0 0.00 0.00 0.00 34 1008.3
20260505200001 74 360 3.0 11.0 0.00 0.00 0.00 36 1008.2
20260505194624 74 191 2.0 9.0 0.00 0.00 0.00 33 1008.4
20260505194502 74 117 2.0 9.0 0.00 0.00 0.00 34 1008.5
20260505193100 74 305 4.0 10.0 0.00 0.00 0.00 34 1008.5
20260505191557 75 355 5.0 11.0 0.00 0.00 0.00 32 1008.7
20260505190054 75 314 5.0 12.0 0.00 0.00 0.00 33 1009.0
20260505184552 75 147 2.0 8.0 0.00 0.00 0.00 39 1009.0
20260505183050 74 257 0.0 8.0 0.00 0.00 0.00 41 1009.3
20260505181555 74 178 5.0 10.0 0.00 0.00 0.00 38 1009.4
20260505180047 74 329 3.0 12.0 0.00 0.00 0.00 37 1009.4
20260505174549 73 244 3.0 15.0 0.00 0.00 0.00 38 1009.8
20260505173041 73 288 2.0 9.0 0.00 0.00 0.00 38 1009.9
20260505171639 73 177 3.0 12.0 0.00 0.00 0.00 41 1010.1
20260505170038 73 335 3.0 9.0 0.00 0.00 0.00 39 1010.2
20260505164536 72 134 2.0 6.0 0.00 0.00 0.00 41 1010.4
20260505163038 72 12 2.0 10.0 0.00 0.00 0.00 40 1010.6
20260505161535 72 140 4.0 10.0 0.00 0.00 0.00 43 1010.7
20260505153029 71 167 2.0 9.0 0.00 0.00 0.00 48 1011.4
20260505151525 69 132 3.0 11.0 0.00 0.00 0.00 46 1011.5
20260505124513 64 175 3.0 13.0 0.00 0.00 0.00 54 1012.0
20260505123005 63 138 2.0 9.0 0.00 0.00 0.00 56 1012.2
20260505121502 62 322 0.0 5.0 0.00 0.00 0.00 59 1012.1
20260505120121 61 164 0.0 7.0 0.00 0.00 0.00 62 1012.3
20260505114555 58 161 0.0 2.0 0.00 0.00 0.00 68 1012.2
20260505113054 57 126 0.0 0.0 0.00 0.00 0.00 68 1012.2
20260505111551 57 135 0.0 0.0 0.00 0.00 0.00 69 1012.2
20260505101540 55 163 0.0 0.0 0.00 0.00 0.00 73 1011.4
20260505100038 54 163 0.0 1.0 0.00 0.00 0.00 74 1011.3
20260505094536 54 163 0.0 2.0 0.00 0.00 0.00 76 1011.1
20260505093030 52 120 0.0 4.0 0.00 0.00 0.00 79 1011.0
20260505091529 51 154 0.0 1.0 0.00 0.00 0.00 81 1010.9
20260505090030 50 153 0.0 2.0 0.00 0.00 0.00 84 1010.7
20260505084527 48 154 0.0 6.0 0.00 0.00 0.00 88 1010.7
20260505083126 47 161 1.0 3.0 0.00 0.00 0.00 87 1010.8
20260505081537 47 161 1.0 3.0 0.00 0.00 0.00 87 1010.7
20260505080022 47 153 1.0 3.0 0.00 0.00 0.00 87 1010.4
20260505074521 47 164 2.0 5.0 0.00 0.00 0.00 87 1010.4
20260505073023 47 151 3.0 6.0 0.00 0.00 0.00 88 1010.3
20260505071539 47 150 2.0 5.0 0.00 0.00 0.00 86 1010.1
20260505070019 48 154 2.0 5.0 0.00 0.00 0.00 86 1010.1
20260505064523 47 148 4.0 6.0 0.00 0.00 0.00 88 1010.2
20260505063016 47 150 2.0 5.0 0.00 0.00 0.00 87 1010.3
20260505061513 48 150 1.0 3.0 0.00 0.00 0.00 86 1010.3
20260505060012 49 150 0.0 0.0 0.00 0.00 0.00 85 1010.3
20260505054507 49 150 0.0 3.0 0.00 0.00 0.00 84 1010.3
20260505053006 49 150 2.0 5.0 0.00 0.00 0.00 83 1010.3
20260505051507 49 142 3.0 5.0 0.00 0.00 0.00 83 1010.2
20260505041559 51 151 2.0 6.0 0.00 0.00 0.00 79 1010.0
20260505040056 51 150 2.0 5.0 0.00 0.00 0.00 78 1010.2
20260505034555 51 155 4.0 6.0 0.00 0.00 0.00 79 1010.1
20260505033055 51 180 3.0 5.0 0.00 0.00 0.00 79 1010.1
20260505031555 52 155 3.0 6.0 0.00 0.00 0.00 78 1010.2
20260505030052 53 144 3.0 6.0 0.00 0.00 0.00 77 1010.3
20260505024551 53 144 3.0 6.0 0.00 0.00 0.00 76 1010.2
20260505023057 53 152 3.0 5.0 0.00 0.00 0.00 76 1010.3
20260505021549 54 157 3.0 6.0 0.00 0.00 0.00 75 1010.3
20260505020054 55 146 3.0 6.0 0.00 0.00 0.00 73 1010.4
20260505014548 55 145 3.0 5.0 0.00 0.00 0.00 73 1010.4
20260505013049 54 152 2.0 5.0 0.00 0.00 0.00 75 1010.3
20260505011552 56 168 2.0 4.0 0.00 0.00 0.00 72 1010.2
20260505010050 56 155 2.0 5.0 0.00 0.00 0.00 71 1010.1
20260505004548 57 156 2.0 3.0 0.00 0.00 0.00 70 1010.0
20260505003047 59 156 2.0 3.0 0.00 0.00 0.00 64 1010.0